2E1HJE-10 Weather Reports


time (UTC)temp
C
wind
direction
speed
KPH
gust
KPH
rain 1hr
cm
rain 24hr
cm
rain mn
cm
humidity
%
barometer
mb
20260510103827 13 44 32.2 59.5 0.00 0.00 0.00 61 1016.9
20260510102827 13 43 32.2 59.5 0.00 0.00 0.00 61 1016.9
20260510101829 13 43 32.2 59.5 0.00 0.00 0.00 61 1016.9
20260510094827 12 42 30.6 57.9 0.00 0.00 0.00 62 1016.9
20260510091827 12 42 30.6 57.9 0.00 0.00 0.00 61 1017.1
20260510081827 12 44 30.6 54.7 0.00 0.00 0.00 68 1017.5
20260510075827 12 40 27.4 46.7 0.00 0.00 0.00 76 1017.6
20260510072827 11 40 25.7 46.7 0.00 0.00 0.00 78 1017.4
20260510071827 11 40 25.7 46.7 0.00 0.00 0.00 78 1017.4
20260510070827 11 40 24.1 46.7 0.00 0.00 0.00 78 1017.4
20260510064828 11 39 24.1 45.1 0.00 0.00 0.00 82 1017.4
20260510062827 11 37 24.1 45.1 0.00 0.00 0.00 82 1017.4
20260510061829 11 37 24.1 45.1 0.00 0.00 0.00 83 1017.4
20260510060828 11 36 24.1 45.1 0.00 0.00 0.00 83 1017.4
20260510055827 11 34 22.5 38.6 0.00 0.00 0.00 86 1017.3
20260510054827 11 34 22.5 38.6 0.00 0.00 0.00 86 1017.3
20260510053827 10 32 22.5 38.6 0.00 0.00 0.00 86 1017.3
20260510050827 10 30 19.3 37.0 0.00 0.00 0.00 87 1017.3
20260510044827 10 27 19.3 29.0 0.00 0.00 0.00 96 1017.0
20260510042827 9 21 16.1 29.0 0.00 0.00 0.00 96 1017.0
20260510041827 9 21 16.1 29.0 0.00 0.00 0.00 96 1017.0
20260510040827 8 18 14.5 29.0 0.00 0.00 0.00 96 1017.0
20260510035827 8 17 14.5 27.4 0.00 0.00 0.00 93 1017.1
20260510034827 8 17 14.5 27.4 0.00 0.00 0.00 93 1017.1
20260510033827 8 15 14.5 27.4 0.00 0.00 0.00 93 1017.1
20260510024828 8 21 12.9 24.1 0.00 0.00 0.00 73 1017.7
20260510023827 9 26 14.5 27.4 0.00 0.00 0.00 67 1017.7
20260510013827 10 43 12.9 22.5 0.00 0.00 0.00 67 1017.9
20260510010827 10 44 11.3 22.5 0.00 0.00 0.00 67 1017.9
20260510003827 10 47 11.3 24.1 0.00 0.00 0.00 70 1017.9
20260509234830 10 50 11.3 24.1 0.00 0.00 0.00 68 1017.9
20260509233828 11 52 11.3 24.1 0.00 0.00 0.00 68 1017.9
20260509232828 11 54 11.3 22.5 0.00 0.00 0.00 68 1017.9
20260509231827 10 55 11.3 22.5 0.00 0.00 0.00 71 1018.0
20260509230827 10 56 11.3 22.5 0.00 0.00 0.00 71 1018.0
20260509223827 11 58 11.3 22.5 0.00 0.00 0.00 70 1018.1
20260509221828 10 59 11.3 22.5 0.00 0.00 0.00 70 1018.1
20260509220827 11 60 11.3 22.5 0.00 0.00 0.00 70 1018.1
20260509215828 11 60 11.3 22.5 0.00 0.00 0.00 71 1017.9
20260509213827 11 60 9.7 20.9 0.00 0.00 0.00 71 1017.9
20260509212827 11 63 9.7 20.9 0.00 0.00 0.00 71 1017.9
20260509211827 11 63 9.7 20.9 0.00 0.00 0.00 72 1017.9
20260509204827 11 64 9.7 22.5 0.00 0.00 0.00 76 1017.8
20260509202827 11 64 9.7 20.9 0.00 0.00 0.00 77 1017.7
20260509201827 11 64 9.7 20.9 0.00 0.00 0.00 77 1017.7
20260509190827 13 54 11.3 22.5 0.00 0.00 0.00 70 1017.4
20260509172828 16 58 19.3 37.0 0.00 0.00 0.00 47 1016.9
20260509142826 17 69 20.9 41.8 0.00 0.00 0.00 46 1017.3
20260509140827 17 68 20.9 41.8 0.00 0.00 0.00 49 1017.4
20260509134828 17 66 20.9 41.8 0.00 0.00 0.00 49 1017.8
20260509133827 17 64 20.9 41.8 0.00 0.00 0.00 49 1017.8
20260509132827 17 62 20.9 41.8 0.00 0.00 0.00 49 1017.8
20260509131826 17 62 20.9 41.8 0.00 0.00 0.00 49 1017.8
20260509120827 17 62 20.9 41.8 0.00 0.00 0.00 52 1017.7
20260509115826 17 63 20.9 38.6 0.00 0.00 0.00 54 1018.0
20260509114826 17 63 20.9 38.6 0.00 0.00 0.00 54 1018.0
20260509111827 16 62 20.9 40.2 0.00 0.00 0.00 53 1018.1
20260509105826 16 63 20.9 37.0 0.00 0.00 0.00 55 1018.4